| time (UTC) | temp C | wind direction | speed KPH | gust KPH | rain 1hr cm | rain 24hr cm | rain mn cm | humidity % | barometer mb |
| 20260508054523 | 7 | 154 | 0.0 | 1.6 | 0.00 | 0.00 | 0.00 | 67 | 1012.7 |
| 20260508053026 | 7 | 214 | 0.0 | 1.6 | 0.00 | 0.00 | 0.00 | 68 | 1013.0 |
| 20260508051528 | 7 | 240 | 0.0 | 4.8 | 0.00 | 0.00 | 0.00 | 67 | 1013.2 |
| 20260508050018 | 7 | 209 | 0.0 | 1.6 | 0.00 | 0.00 | 0.00 | 67 | 1013.2 |
| 20260508044524 | 6 | 165 | 0.0 | 3.2 | 0.00 | 0.00 | 0.00 | 66 | 1013.2 |
| 20260508043032 | 6 | 134 | 0.0 | 3.2 | 0.00 | 0.00 | 0.00 | 65 | 1013.2 |
| 20260508041527 | 6 | 309 | 0.0 | 4.8 | 0.00 | 0.00 | 0.00 | 64 | 1013.2 |
| 20260508040027 | 6 | 268 | 0.0 | 3.2 | 0.00 | 0.00 | 0.00 | 63 | 1013.3 |
| 20260508034520 | 6 | 225 | 0.0 | 3.2 | 0.00 | 0.00 | 0.00 | 61 | 1013.2 |
| 20260508033022 | 6 | 206 | 0.0 | 3.2 | 0.00 | 0.00 | 0.00 | 61 | 1013.2 |
| 20260508031524 | 6 | 160 | 0.0 | 1.6 | 0.00 | 0.00 | 0.00 | 60 | 1013.2 |
| 20260508030014 | 6 | 158 | 0.0 | 1.6 | 0.00 | 0.00 | 0.00 | 59 | 1013.2 |
| 20260508024524 | 6 | 160 | 0.0 | 0.0 | 0.00 | 0.00 | 0.00 | 58 | 1013.2 |
| 20260508023033 | 6 | 162 | 0.0 | 1.6 | 0.00 | 0.00 | 0.00 | 58 | 1013.1 |
| 20260508021523 | 7 | 166 | 0.0 | 1.6 | 0.00 | 0.00 | 0.00 | 57 | 1013.1 |
| 20260508020014 | 7 | 151 | 0.0 | 0.0 | 0.00 | 0.00 | 0.00 | 57 | 1013.1 |
| 20260508014519 | 7 | 137 | 0.0 | 1.6 | 0.00 | 0.00 | 0.00 | 56 | 1013.0 |
| 20260508013017 | 7 | 211 | 0.0 | 1.6 | 0.00 | 0.00 | 0.00 | 55 | 1013.0 |
| 20260508011525 | 7 | 211 | 0.0 | 1.6 | 0.00 | 0.00 | 0.00 | 53 | 1012.9 |
| 20260508010031 | 8 | 277 | 0.0 | 1.6 | 0.00 | 0.00 | 0.00 | 51 | 1012.7 |
| 20260508004511 | 9 | 275 | 0.0 | 3.2 | 0.00 | 0.00 | 0.00 | 49 | 1012.7 |
| 20260508003013 | 10 | 281 | 1.6 | 11.3 | 0.00 | 0.00 | 0.00 | 46 | 1012.6 |
| 20260508001519 | 10 | 288 | 4.8 | 11.3 | 0.00 | 0.00 | 0.00 | 44 | 1012.6 |
| 20260508000021 | 11 | 303 | 4.8 | 14.5 | 0.00 | 0.00 | 0.00 | 43 | 1012.4 |
| 20260507234526 | 11 | 305 | 3.2 | 19.3 | 0.00 | 0.00 | 0.00 | 44 | 1012.3 |
| 20260507233012 | 11 | 313 | 11.3 | 19.3 | 0.00 | 0.00 | 0.00 | 43 | 1012.3 |
| 20260507231516 | 11 | 279 | 11.3 | 20.9 | 0.00 | 0.00 | 0.00 | 43 | 1012.3 |
| 20260507230020 | 12 | 292 | 9.7 | 19.3 | 0.00 | 0.00 | 0.00 | 41 | 1012.4 |
| 20260507224522 | 12 | 330 | 11.3 | 22.5 | 0.00 | 0.00 | 0.00 | 43 | 1012.3 |
| 20260507223027 | 12 | 1 | 8.0 | 24.1 | 0.00 | 0.00 | 0.00 | 42 | 1012.4 |
| 20260507221510 | 12 | 311 | 6.4 | 25.7 | 0.00 | 0.00 | 0.00 | 44 | 1012.3 |
| 20260507220016 | 12 | 266 | 9.7 | 24.1 | 0.00 | 0.00 | 0.00 | 48 | 1012.3 |
| 20260507214524 | 11 | 259 | 9.7 | 19.3 | 0.00 | 0.00 | 0.00 | 52 | 1012.2 |
| 20260507213030 | 12 | 281 | 6.4 | 17.7 | 0.00 | 0.00 | 0.00 | 55 | 1012.0 |
| 20260507211526 | 11 | 260 | 9.7 | 29.0 | 0.00 | 0.00 | 0.00 | 55 | 1012.0 |
| 20260507210028 | 10 | 316 | 3.2 | 14.5 | 0.00 | 0.00 | 0.00 | 59 | 1011.8 |
| 20260507204520 | 11 | 308 | 8.0 | 22.5 | 0.00 | 0.00 | 0.00 | 57 | 1011.9 |
| 20260507203005 | 11 | 305 | 8.0 | 16.1 | 0.00 | 0.00 | 0.00 | 55 | 1011.8 |
| 20260507201505 | 11 | 305 | 6.4 | 20.9 | 0.00 | 0.00 | 0.00 | 54 | 1011.7 |
| 20260507200017 | 11 | 293 | 6.4 | 17.7 | 0.00 | 0.00 | 0.00 | 53 | 1011.7 |
| 20260507194503 | 12 | 300 | 4.8 | 17.7 | 0.00 | 0.00 | 0.00 | 51 | 1011.8 |
| 20260507193005 | 11 | 295 | 3.2 | 17.7 | 0.00 | 0.00 | 0.00 | 52 | 1011.9 |
| 20260507191505 | 11 | 298 | 4.8 | 11.3 | 0.00 | 0.00 | 0.00 | 53 | 1011.9 |
| 20260507190020 | 11 | 300 | 6.4 | 14.5 | 0.00 | 0.00 | 0.00 | 49 | 1012.1 |
| 20260507184512 | 11 | 333 | 6.4 | 17.7 | 0.00 | 0.00 | 0.00 | 50 | 1012.1 |
| 20260507183005 | 11 | 302 | 4.8 | 12.9 | 0.00 | 0.00 | 0.00 | 51 | 1012.1 |
| 20260507181505 | 11 | 338 | 8.0 | 16.1 | 0.00 | 0.00 | 0.00 | 51 | 1012.1 |
| 20260507180010 | 12 | 305 | 8.0 | 17.7 | 0.00 | 0.00 | 0.00 | 51 | 1012.1 |
| 20260507174511 | 12 | 307 | 6.4 | 14.5 | 0.00 | 0.00 | 0.00 | 52 | 1012.1 |
| 20260507173015 | 12 | 283 | 4.8 | 20.9 | 0.00 | 0.00 | 0.00 | 58 | 1012.2 |
| 20260507171503 | 12 | 345 | 6.4 | 19.3 | 0.00 | 0.00 | 0.00 | 55 | 1012.1 |
| 20260507170007 | 12 | 320 | 6.4 | 20.9 | 0.00 | 0.00 | 0.00 | 54 | 1012.1 |
| 20260507164517 | 13 | 294 | 9.7 | 19.3 | 0.00 | 0.00 | 0.00 | 48 | 1012.2 |
| 20260507163014 | 12 | 304 | 8.0 | 17.7 | 0.00 | 0.00 | 0.00 | 50 | 1012.2 |
| 20260507161516 | 12 | 287 | 6.4 | 17.7 | 0.00 | 0.00 | 0.00 | 46 | 1012.1 |
| 20260507160005 | 12 | 254 | 6.4 | 11.3 | 0.00 | 0.00 | 0.00 | 49 | 1012.2 |
| 20260507154506 | 12 | 198 | 1.6 | 11.3 | 0.00 | 0.00 | 0.00 | 46 | 1012.3 |
| 20260507153012 | 12 | 277 | 3.2 | 17.7 | 0.00 | 0.00 | 0.00 | 46 | 1012.4 |
| 20260507151516 | 12 | 274 | 1.6 | 4.8 | 0.00 | 0.00 | 0.00 | 49 | 1012.5 |
| 20260507150021 | 12 | 293 | 4.8 | 11.3 | 0.00 | 0.00 | 0.00 | 53 | 1012.5 |
| 20260507144504 | 12 | 313 | 3.2 | 6.4 | 0.00 | 0.00 | 0.00 | 52 | 1012.5 |
| 20260507143008 | 11 | 310 | 6.4 | 12.9 | 0.00 | 0.00 | 0.00 | 52 | 1012.6 |
| 20260507141511 | 11 | 233 | 3.2 | 11.3 | 0.00 | 0.00 | 0.00 | 51 | 1012.7 |
| 20260507140017 | 11 | 271 | 0.0 | 11.3 | 0.00 | 0.00 | 0.00 | 56 | 1012.9 |
| 20260507134522 | 11 | 134 | 0.0 | 4.8 | 0.00 | 0.00 | 0.00 | 60 | 1013.1 |
| 20260507133024 | 10 | 307 | 1.6 | 6.4 | 0.00 | 0.00 | 0.00 | 63 | 1013.2 |
| 20260507131508 | 9 | 300 | 0.0 | 8.0 | 0.00 | 0.00 | 0.00 | 63 | 1013.2 |
| 20260507130014 | 9 | 273 | 3.2 | 8.0 | 0.00 | 0.00 | 0.00 | 67 | 1013.3 |
| 20260507124523 | 9 | 255 | 3.2 | 9.7 | 0.00 | 0.00 | 0.00 | 65 | 1013.2 |
| 20260507123026 | 10 | 257 | 1.6 | 6.4 | 0.00 | 0.00 | 0.00 | 66 | 1013.1 |
| 20260507121536 | 10 | 141 | 0.0 | 4.8 | 0.00 | 0.00 | 0.00 | 66 | 1013.0 |
| 20260507120011 | 8 | 283 | 0.0 | 1.6 | 0.00 | 0.00 | 0.00 | 69 | 1013.0 |
| 20260507114517 | 7 | 223 | 0.0 | 4.8 | 0.00 | 0.00 | 0.00 | 72 | 1013.0 |
| 20260507113031 | 7 | 126 | 0.0 | 1.6 | 0.00 | 0.00 | 0.00 | 75 | 1013.1 |
| 20260507111504 | 5 | 142 | 0.0 | 3.2 | 0.00 | 0.00 | 0.00 | 79 | 1012.9 |
| 20260507110009 | 5 | 159 | 0.0 | 1.6 | 0.00 | 0.00 | 0.00 | 78 | 1012.9 |
| 20260507104514 | 5 | 221 | 0.0 | 1.6 | 0.00 | 0.00 | 0.00 | 77 | 1012.7 |
| 20260507103017 | 5 | 207 | 0.0 | 1.6 | 0.00 | 0.00 | 0.00 | 77 | 1012.4 |
| 20260507101528 | 5 | 198 | 0.0 | 0.0 | 0.00 | 0.00 | 0.00 | 78 | 1012.4 |
| 20260507100012 | 5 | 173 | 0.0 | 1.6 | 0.00 | 0.00 | 0.00 | 78 | 1012.4 |
| 20260507094511 | 5 | 113 | 0.0 | 3.2 | 0.00 | 0.03 | 0.00 | 77 | 1012.4 |
| 20260507093033 | 5 | 198 | 0.0 | 4.8 | 0.00 | 0.08 | 0.00 | 78 | 1012.3 |
| 20260507091521 | 5 | 152 | 0.0 | 3.2 | 0.00 | 0.15 | 0.00 | 78 | 1012.4 |
| 20260507090031 | 5 | 174 | 0.0 | 6.4 | 0.00 | 0.18 | 0.00 | 79 | 1012.5 |
| 20260507084525 | 5 | 120 | 0.0 | 1.6 | 0.00 | 0.20 | 0.00 | 81 | 1012.5 |
| 20260507083031 | 4 | 146 | 0.0 | 1.6 | 0.00 | 0.23 | 0.00 | 81 | 1012.7 |
| 20260507081517 | 4 | 143 | 0.0 | 3.2 | 0.00 | 0.30 | 0.00 | 80 | 1012.7 |
| 20260507080020 | 5 | 96 | 0.0 | 3.2 | 0.00 | 0.36 | 0.00 | 80 | 1012.7 |
| 20260507074529 | 5 | 111 | 0.0 | 3.2 | 0.00 | 0.41 | 0.00 | 79 | 1012.7 |
| 20260507073026 | 5 | 108 | 0.0 | 4.8 | 0.00 | 0.43 | 0.00 | 79 | 1012.7 |
| 20260507071513 | 5 | 127 | 0.0 | 6.4 | 0.00 | 0.51 | 0.00 | 79 | 1012.7 |
| 20260507070017 | 5 | 119 | 1.6 | 6.4 | 0.00 | 0.53 | 0.00 | 80 | 1012.9 |
| 20260507064523 | 5 | 97 | 0.0 | 4.8 | 0.00 | 0.56 | 0.00 | 79 | 1013.1 |
| 20260507063029 | 5 | 91 | 1.6 | 4.8 | 0.00 | 0.58 | 0.00 | 79 | 1013.1 |
| 20260507061529 | 5 | 108 | 1.6 | 4.8 | 0.00 | 0.66 | 0.00 | 79 | 1013.3 |
| 20260507060014 | 5 | 84 | 1.6 | 4.8 | 0.00 | 0.74 | 0.00 | 78 | 1013.4 |